Weather History for Rotterdam, Netherlands

Change the Weather History Date:

Thursday, December 13, 2012

  Actual Average Record
Temperature  
Mean Temperature 31 °F -  
Max Temperature 34 °F 42 °F 55 °F (1998)
Min Temperature 28 °F 34 °F 21 °F (2010)
Degree Days  
Heating Degree Days 34    
Moisture  
Dew Point 24 °F    
Average Humidity 74    
Maximum Humidity 87    
Minimum Humidity 52    
Precipitation  
Precipitation 0.00 in - - ()
Sea Level Pressure  
Sea Level Pressure 29.79 in    
Wind  
Wind Speed 6 mph ()    
Max Wind Speed 9 mph    
Max Gust Speed -    
Visibility 6.9 miles    
Events      
Averages and records for this station are not official NWS values.
T = Trace of Precipitation, MM = Missing Value Source: Averaged Metar Reports

Daily Weather History Graph

Daily Weather History Graph

Search for Another Location

Airport:

Trip Planner

Search our weather history database for the weather conditions in past years. The results will help you decide how hot, cold, wet, or windy it might be!

Date:

Astronomy

Dec. 13, 2012 Rise Set
Actual Time 8:42 AM CET 4:30 PM CET
Civil Twilight 8:01 AM CET 5:11 PM CET
Nautical Twilight 7:17 AM CET 5:55 PM CET
Astronomical Twilight 6:36 AM CET 6:36 PM CET
Moon 8:32 AM CET (12/13) 4:58 PM CET (12/13)
Length of Visible Light 9h 10m
Length of Day
7h 48m
New Moon, 0% of the Moon is Illuminated
Dec 13
New Moon
Dec 20
First Quarter
Dec 28
Full
Jan 5
Last Quarter
Jan 11
New

Hourly Weather History & Observations

Time (CET) Temp. Windchill Dew Point Humidity Pressure Visibility Wind Dir Wind Speed Gust Speed Precip Events Conditions
12:25 AM 32.0 °F 25.6 °F 24.8 °F 75% 29.98 in 6.2 mi South 6.9 mph - N/A   Mostly Cloudy
12:55 AM 32.0 °F 24.2 °F 26.6 °F 80% 29.98 in 6.2 mi South 9.2 mph - N/A   Unknown
1:00 AM 31 °F - 26 °F 73% 29.98 in 7 mi South 6.7 mph - -   Partly Cloudy
1:25 AM 30.2 °F 23.4 °F 26.6 °F 86% 29.98 in 6.2 mi South 6.9 mph - N/A   Scattered Clouds
1:55 AM 30.2 °F 22.6 °F 26.6 °F 86% 29.95 in 6.2 mi South 8.1 mph - N/A   Unknown
2:25 AM 30.2 °F 23.4 °F 24.8 °F 80% 29.95 in 6.2 mi South 6.9 mph - N/A   Unknown
2:55 AM 30.2 °F 24.3 °F 24.8 °F 80% 29.95 in 6.2 mi South 5.8 mph - N/A   Unknown
3:25 AM 30.2 °F 24.3 °F 24.8 °F 80% 29.92 in 6.2 mi SSE 5.8 mph - N/A   Unknown
3:55 AM 30.2 °F 23.4 °F 24.8 °F 80% 29.92 in 6.2 mi SSE 6.9 mph - N/A   Unknown
4:00 AM 29 °F - 24 °F 76% 29.93 in 7 mi SSE 6.7 mph - -   Overcast
4:25 AM 28.4 °F 23.3 °F 24.8 °F 86% 29.92 in 6.2 mi SSE 4.6 mph - N/A   Unknown
4:55 AM 28.4 °F 21.2 °F 23.0 °F 80% 29.89 in 6.2 mi SSE 6.9 mph - N/A   Unknown
5:25 AM 30.2 °F 23.4 °F 21.2 °F 69% 29.89 in 6.2 mi SSE 6.9 mph - N/A   Unknown
5:55 AM 30.2 °F 25.4 °F 23.0 °F 75% 29.86 in 6.2 mi SE 4.6 mph - N/A   Unknown
6:25 AM 30.2 °F 25.4 °F 21.2 °F 69% 29.86 in 6.2 mi SSE 4.6 mph - N/A   Unknown
6:55 AM 28.4 °F 24.6 °F 21.2 °F 74% 29.86 in 6.2 mi ESE 3.5 mph - N/A   Unknown
7:00 AM 29 °F - 21 °F 60% 29.86 in 12 mi SSE 4.5 mph - -   Partly Cloudy
7:25 AM 30.2 °F 24.3 °F 21.2 °F 69% 29.83 in 6.2 mi SE 5.8 mph - N/A   Unknown
7:55 AM 30.2 °F 24.3 °F 21.2 °F 69% 29.83 in 6.2 mi ESE 5.8 mph - N/A   Unknown
8:25 AM 30.2 °F 24.3 °F 21.2 °F 69% 29.83 in 6.2 mi ESE 5.8 mph - N/A   Unknown
8:55 AM 28.4 °F 20.4 °F 23.0 °F 80% 29.83 in 6.2 mi East 8.1 mph - N/A   Unknown
9:25 AM 30.2 °F 24.3 °F 21.2 °F 69% 29.80 in 6.2 mi East 5.8 mph - N/A   Unknown
9:55 AM 30.2 °F 23.4 °F 23.0 °F 75% 29.80 in 6.2 mi East 6.9 mph - N/A   Unknown
10:00 AM 29 °F - 23 °F 70% 29.82 in 12 mi East 6.7 mph - -   Overcast
10:25 AM 30.2 °F 22.6 °F 23.0 °F 75% 29.80 in 6.2 mi East 8.1 mph - N/A   Unknown
10:55 AM 30.2 °F 22.6 °F 24.8 °F 80% 29.80 in 6.2 mi East 8.1 mph - N/A   Unknown
11:25 AM 30.2 °F 23.4 °F 24.8 °F 80% 29.80 in 6.2 mi East 6.9 mph - N/A   Unknown
11:55 AM 32.0 °F 26.4 °F 24.8 °F 75% 29.80 in 6.2 mi East 5.8 mph - N/A   Unknown
12:25 PM 32.0 °F 26.4 °F 24.8 °F 75% 29.77 in 6.2 mi East 5.8 mph - N/A   Unknown
12:55 PM 32.0 °F 24.8 °F 24.8 °F 75% 29.77 in 6.2 mi SE 8.1 mph - N/A   Unknown
1:00 PM 33 °F - 22 °F 52% 29.77 in 14 mi SSE 8.9 mph - -   Partly Cloudy
1:25 PM 32.0 °F 24.8 °F 23.0 °F 69% 29.74 in 6.2 mi SSE 8.1 mph - N/A   Unknown
1:55 PM 32.0 °F 24.8 °F 21.2 °F 64% 29.74 in 6.2 mi SE 8.1 mph - N/A   Unknown
2:25 PM 32.0 °F 25.6 °F 23.0 °F 69% 29.74 in 6.2 mi SSE 6.9 mph - N/A   Unknown
2:55 PM 32.0 °F 24.2 °F 23.0 °F 69% 29.71 in 6.2 mi SSE 9.2 mph - N/A   Unknown
3:25 PM 32.0 °F 24.8 °F 23.0 °F 69% 29.71 in 6.2 mi SSE 8.1 mph - N/A   Unknown
3:55 PM 32.0 °F 25.6 °F 23.0 °F 69% 29.71 in 6.2 mi ESE 6.9 mph - N/A   Unknown
4:00 PM 32 °F - 23 °F 60% 29.72 in 16 mi ESE 6.7 mph - -   Overcast
4:25 PM 32.0 °F 25.6 °F 23.0 °F 69% 29.71 in 6.2 mi ESE 6.9 mph - N/A   Unknown
4:55 PM 32.0 °F 26.4 °F 23.0 °F 69% 29.71 in 6.2 mi SE 5.8 mph - N/A   Partly Cloudy
5:25 PM 32.0 °F 25.6 °F 23.0 °F 69% 29.68 in 6.2 mi ESE 6.9 mph - N/A   Partly Cloudy
5:55 PM 32.0 °F 26.4 °F 23.0 °F 69% 29.68 in 6.2 mi SE 5.8 mph - N/A   Scattered Clouds
6:25 PM 32.0 °F 26.4 °F 24.8 °F 75% 29.68 in 6.2 mi ESE 5.8 mph - N/A   Overcast
6:55 PM 30.2 °F 24.3 °F 24.8 °F 80% 29.68 in 6.2 mi ESE 5.8 mph - N/A   Overcast
7:00 PM 31 °F - 25 °F 72% 29.69 in 10 mi ESE 6.7 mph - -   Partly Cloudy
7:25 PM 32.0 °F 25.6 °F 24.8 °F 75% 29.68 in 6.2 mi ESE 6.9 mph - N/A   Overcast
7:55 PM 32.0 °F 25.6 °F 26.6 °F 80% 29.68 in 6.2 mi SE 6.9 mph - N/A   Overcast
8:25 PM 33.8 °F 29.6 °F 26.6 °F 75% 29.68 in 6.2 mi SE 4.6 mph - N/A   Overcast
8:55 PM 33.8 °F 27.7 °F 26.6 °F 75% 29.65 in 6.2 mi SSE 6.9 mph - N/A   Overcast
9:25 PM 33.8 °F 27.7 °F 26.6 °F 75% 29.65 in 6.2 mi SSE 6.9 mph - N/A   Overcast
9:55 PM 33.8 °F 28.6 °F 28.4 °F 81% 29.65 in 6.2 mi SSE 5.8 mph - N/A   Overcast
10:00 PM 34 °F - 28 °F 71% 29.67 in 9 mi SSE 6.7 mph - -   Overcast
10:25 PM 33.8 °F 27.7 °F 28.4 °F 81% 29.65 in 6.2 mi SSE 6.9 mph - N/A   Overcast
10:55 PM 33.8 °F 27.0 °F 30.2 °F 87% 29.65 in 6.2 mi SSE 8.1 mph - N/A   Overcast
11:25 PM 33.8 °F 27.7 °F 30.2 °F 87% 29.65 in 5.6 mi SSE 6.9 mph - N/A   Overcast